Content
SEND FEEDBACK

Philippines Flag

OLONGAPO, PHILIPPINES


Home > Asia > Philippines
Elevation: 16 meters     Latitude: 14 48N     Longitude: 120 16E

WEATHER
 
SELECT A DAY
Number of Records: 154,623;   Date Range: 7/31/96 - 3/22/16
 
SHARE

PRINT THIS DATA

[ ← Previous Day ]
WEATHER ALMANAC - 1 SEPTEMBER, 2013
[ Next Day → ]
[ °F ]   °C
Weather ElementAverageHighLow
Temperature29.1 °C34 °C (12:00 pm)25 °C (6:00 am)
Dewpoint23.4 °C25 °C (2:00 pm)22 °C (5:00 am)
Humidity70.2 %84 % (11:00 pm)52 % (12:00 pm)
Barometer1010.5 hPa1012.2 hPa (10:00 pm)1008.1 hPa (3:00 pm)
Wind Speed9.5 km/h21.6 km/h (2:00 pm)
Weather ElementAverage
Visibility12.1 km
Wind DirectionESE (112.6 °)

Weather ElementTotal
Precipitation---
Cooling Degree Days11.2 (Base 18.3)
Growing Degree Days19.5 (Base 10)
Averaged from 27 records on 1 September, 2013
WEATHER CONDITIONS BREAKOUT
WIND DIRECTION BREAKOUT
WEATHER BY HOUR - 1 SEPTEMBER, 2013
[ °F ]   °C
Local TimeTemperatureDewpointHumidityBarometerVisibilityWind DirectionWind SpeedGust SpeedPrecipitationEventsConditions
2:00 AM26.1 °C23.3 °C79 %1010.5 hPa17.7 kmNE (50°)7.2 km/hHaze
2:00 AM26 °C23 °C83 %1010.2 hPa10 kmNE (50°)7.4 km/hMostly Cloudy
5:00 AM26.1 °C22.2 °C73 %1010.2 hPa17.7 kmENE (60°)7.2 km/hHaze
5:00 AM26 °C22 °C78 %1010.2 hPa10 kmENE (60°)9.3 km/hPartly Cloudy
6:00 AM25 °C22 °C83 %1010.2 hPa10 kmVariable3.7 km/hMostly Cloudy
7:00 AM26 °C23 °C83 %1011.2 hPa10 kmVariable3.7 km/hMostly Cloudy
8:00 AM27 °C23 °C79 %1011.2 hPa10 kmVariable1.9 km/hMostly Cloudy
8:00 AM27.2 °C22.8 °C70 %1011.5 hPa17.7 kmENE (60°)3.5 km/hHaze
9:00 AM30 °C23 °C66 %1011.2 hPa10 kmVariable3.7 km/hMostly Cloudy
10:00 AM30 °C24 °C70 %1011.2 hPa10 kmNW (320°)7.4 km/hScattered Clouds
11:00 AM33 °C24 °C59 %1011.2 hPa10 kmNorth (10°)7.4 km/hMostly Cloudy
12:00 PM34 °C23 °C52 %1010.2 hPa10 kmEast (90°)13 km/hMostly Cloudy
1:00 PM33 °C23 °C55 %1010.2 hPa10 kmSW (220°)16.7 km/hMostly Cloudy
2:00 PM33 °C25 °C63 %1009.1 hPa10 kmSW (220°)20.4 km/hScattered Clouds
2:00 PM32.8 °C25 °C56 %1009.1 hPa19.3 kmSW (220°)21.6 km/hHaze
3:00 PM33 °C25 °C63 %1008.1 hPa10 kmSW (220°)18.5 km/hMostly Cloudy
4:00 PM32 °C23 °C59 %1008.1 hPa10 kmNNW (330°)11.1 km/hMostly Cloudy
5:00 PM30.6 °C24.4 °C63 %1008.8 hPa19.3 kmNorth10.8 km/hHaze
5:00 PM31 °C25 °C70 %1008.1 hPa10 kmNorth (360°)11.1 km/hPartly Cloudy
6:00 PM30 °C25 °C74 %1010.2 hPa10 kmNNW (340°)13 km/hMostly Cloudy
7:00 PM30 °C23 °C66 %1011.2 hPa10 kmENE (60°)16.7 km/hMostly Cloudy
8:00 PM28.9 °C22.8 °C61 %1011.5 hPa17.7 kmENE (70°)7.2 km/hHaze
8:00 PM29 °C23 °C70 %1011.2 hPa10 kmENE (70°)7.4 km/hMostly Cloudy
9:00 PM28 °C23 °C74 %1011.2 hPa10 kmNE (50°)7.4 km/hMostly Cloudy
10:00 PM27 °C23 °C79 %1012.2 hPa10 kmENE (60°)7.4 km/hPartly Cloudy
11:00 PM25.6 °C23.3 °C84 %1012.2 hPa17.7 kmENE (60°)7.2 km/hHaze
11:00 PM26 °C23 °C83 %1012.2 hPa10 kmENE (60°)5.6 km/hPartly Cloudy
Hourly data recorded from RPLB, located 0 kilometers away from Olongapo, Philippines




STORIES FROM OUR PARTNERS